星链-1733 (STARLINK-1733 )

导读

STARLINK-1733是美国SpaceX公司星链(Starlink)星座中的第一代V1.0卫星,于2020年10月6日发射升空。它运行在近地轨道,配备相控阵通信天线与氪离子推进系统,为全球提供低延迟宽带互联网服务,覆盖偏远地区、应急通信、移动网络连接等场景。作为星链早期部署批次的卫星,它支撑起星链星座初期全球组网能力,推动了低轨卫星互联网商业化进程,设计寿命约5年,目前已接近服役末期。

基本信息
目录编号:
46564
目录名称:
STARLINK-1733
国际标识:
2020-070AJ
轨道中心:
EARTH
卫星名称:
星链-1733
卫星全名:
星链-1733 (STARLINK-1733 )
卫星状态:
已陨落 最后检测时间 2026-05-18
发射日期:
2020-10-06 UTC
国别 :
美国 (US)
星等 :
--
轨道信息
数据来源 国际轨道数据
星历时间: 2026-05-18T19:07:57+0800
轨道信息已过期115天
半长轴: 6556km
偏心率: 0.0003912
轨道倾角: 53.019°
近地点辐角 276.389°
升交点赤经 111.875°
平近点角 83.671°
近地点: 175.298km
远地点: 180.428km
周期: 88.048分钟
每日圈数: 16.354767
详细信息
固有亮度:
5
最大亮度:
2.5
卫星平台:
Starlink V1.0
覆盖范围:
全球
运营商:
太空探索技术公司
运营商所在国:
美国
制造商(研发单位):
太空探索技术公司
制造商所在国:
美国
使用方式:
暂无
卫星简介
星链(Starlink)计划是由太空探索技术公司(SpaceX)提出的一个巨型低轨卫星互联网星座项目,计划在2019年至2024年间在太空搭建由约1.2万颗卫星组成的“星链”网络,其中1584颗将部署在地球上空550千米处的近地轨道,并从2020年开始工作。该卫星仍在工作。
与全量物体交会距离演化趋势
与全量物体交会风险概率演化趋势